STARLINK-37095, 68237

Orbit data source: Space-Track

STARLINK-37095, 68237 is a payload satellite owned by SpaceX/Seattle (US) in LEO that was launched on Tue, 17 Mar 2026 UTC via an FALCON 9 launch vehicle from the Air Force Eastern Test Range (AFETR). Payload-class satellites include a variety of spacecraft equipped with specific instruments for various scientific and technological missions. These include communications satellites like Starlink; space stations such as the ISS; scientific satellites like the Hubble; Earth observation satellites from companies like Planet Labs, Umbra, and HawkEye 360; GPS; miniature CubeSats for education and research; and military/defense satellites.

Loading next visibility...
Identifier
68237, 2026-054F
Orbit
LEO
Country
Flag of USUS
Related business
Manufacturer
SpaceX/Seattle
Mission
Operational spacecraft
Bus & Motor
STARLINK V2MO, Unknown motor
Mass
575 kg wet, ~530 kg dry
Launch date (UTC)
2026-03-17 (2 months ago)
Launch vehicle
FALCON 9
Launch site
Air Force Eastern Test Range (AFETR)
Object type
Payload
Rocket body
Debris
Shape & HBR
Unknown shape, 17.7 m
Radar Cross Section
RCS unknown

Expand to show TLE details & history
Last TLE update: 16 hours ago

TLE from 16 hours ago
0 STARLINK-37095
1 68237U 26054F   26145.12221450  .00040588  00000-0  12045-2 0  9997
2 68237  53.1601 295.4221 0002068  82.8261 277.2977 15.34437296 10783
Epoch: 2026-05-25T02:55Z
TLE epoch observation values (Epoch: 2026-05-25T02:55:59.332Z)
Latitude
-0.00001°
Longitude
8.71033°
Altitude
463.314 km
Speed
7.636 km/s
True Right ascension
19h 41m 41s
True Declination
0° 00' 00"
Sunlit
Object was in full shadow at epoch
Visualization orbit readout
Latitude
Unknown
Longitude
Unknown
Altitude
Unknown
Speed
Unknown
Apparent Right ascension
Unknown
Apparent Declination
Unknown
Sunlit
N/A
Visualization observer readout
Local Sidereal Time
03:53:20
Azimuth
Unknown
Elevation
Unknown
Doppler factor
Unknown
Orbital elements
Apogee altitude
464.264 km
Perigee altitude
461.435 km
Semi-major axis
6,840.986 km
Eccentricity
0.00021
Inclination
53.1601°
RAAN
295.4221°
Arg. of periapsis
82.8261°
True anomaly
277.27419°
Mean anomaly
277.2977°
Eccentric anomaly
277.28595°
Mean motion
3.83588 °/min
Orbital period
93.85 mins
BSTAR
0.0012045
Loading maneuver chart data...
Computing Atmospheric mass density...
Loading historical data...
Loading historical data...
Loading historical data...
Loading historical data...
Loading historical data...
Loading historical data...
Loading historical data...

Documentation

Showing up to 5 results
|